"Pseudo-MPEC" for CCC82R2

Created 2024 Nov 26 16:31:06 UT using Find_Orb

Click here for an explanation of pseudo-MPECs

 
 Astrometry: 
     CCC82R2*1C2024 11 22.37082004 28 40.825+21 27 04.54   ~BM9l 20.77GVNEOCPG96
     CCC82R2 1C2024 11 22.37594404 28 43.216+21 27 53.86   ~BM9l 21.28GVNEOCPG96
     CCC82R2 1C2024 11 22.38107704 28 45.592+21 28 43.57   ~BM9l 20.68GVNEOCPG96
     CCC82R2 1C2024 11 22.38743404 28 48.536+21 29 44.52   ~BM9l 20.67GVNEOCPG96
     CCC82R2 KC2024 11 22.47434304 29 29.483+21 43 30.61   ~BMBl 20.88GVNEOCPV06
     CCC82R2 KC2024 11 22.47816204 29 31.330+21 44 06.47   ~BMBl 20.99GVNEOCPV06
     CCC82R2 KC2024 11 22.48031804 29 32.356+21 44 26.77   ~BMBl 20.68GVNEOCPV06
     CCC82R2 KC2024 11 22.48247504 29 33.400+21 44 47.00   ~BMBl 20.69GVNEOCPV06
     CCC82R2  C2024 11 22.53502404 30 03.022+21 53 57.85   ~BPLl 20.63GVNEOCPF52
     CCC82R2  C2024 11 22.54727604 30 08.618+21 55 52.97   ~BPLl 20.74GVNEOCPF52
     CCC82R2 KC2024 11 23.23075204 36 01.670+23 40 11.68   ~BN6V 20.57GVNEOCPI52
     CCC82R2 KC2024 11 23.23435804 36 03.287+23 40 43.97   ~BN6V 20.28GVNEOCPI52
     CCC82R2 KC2024 11 23.23795604 36 04.835+23 41 16.66   ~BN6V 21.14GVNEOCPI52
     CCC82R2 KC2024 11 23.24154704 36 06.415+23 41 48.91   ~BN6V 20.97GVNEOCPI52
     CCC82R2 KC2024 11 26.45346604 59 11.850+30 15 09.97   ~BQBH 21.48GVNEOCPV06
     CCC82R2 KC2024 11 26.45525404 59 12.491+30 15 20.41   ~BQBH 21.58GVNEOCPV06
     CCC82R2 KC2024 11 26.45704204 59 13.106+30 15 30.82   ~BQBH 21.93GVNEOCPV06

Station data:
(F52) Pan-STARRS 2, Haleakala  (N20.707382 W156.255910)  US/Hawaii.
   Observers J. Bulger, T. Dukes, T. Lowe, A. Schultz, M. Willman. Measurers
   K. Chambers, S. Chastel, T. de Boer, L. Denneau, J. Fairlamb, H.
   Flewelling, M. Huber, C.-C. Lin, E. Magnier, Y. Ramanjooloo, R. Wainscoat,
   R. Weryk. 1.8-m Ritchey-Chrétien + CCD.
(G96) Mt. Lemmon Survey  (N32.442729 W110.788720)  US/Arizona.  Observer E.
   J. Christensen. 1.5-m reflector + 10K CCD.
(I52) Steward Observatory, Mt. Lemmon Station  (N32.442570 W110.788920)
   US/Arizona.  Observers T. A. Pruyne, B. M. Africano, E. J. Christensen, G.
   A. Farneth, D. C. Fuls, A. R. Gibbs, A. D. Grauer, H. Gröller, J. A.
   Johnson, R. A. Kowalski, S. M. Larson, G. J. Leonard, D. Rankin, R. L.
   Seaman, F. C. Shelly, K. W. Wierzchoś. 1.0-m prime focus + CCD.
(V06) Catalina Sky Survey-Kuiper  (N32.416871 W110.732550)  US/Arizona.
   Observers T. A. Pruyne, B. M. Africano, E. J. Christensen, G. A. Farneth,
   D. C. Fuls, A. R. Gibbs, A. D. Grauer, H. Gröller, J. A. Johnson, R. A.
   Kowalski, S. M. Larson, G. J. Leonard, D. Rankin, R. L. Seaman, F. C.
   Shelly, K. W. Wierzchoś. 1.55-m reflector + CCD.

Orbital elements:  CCC82R2
   Perihelion 2024 Nov 3.72988 +/- 0.00385 TT = 17:31:01 (JD 2460618.22988)
Epoch 2024 Nov 26.0 TT = JDT 2460640.5   Earth MOID: 0.0419      AutoNEOCP
M   7.81199377 +/- 0.020            (J2000 ecliptic)
n   0.35078368 +/- 0.000973         Peri.  338.39433 +/- 0.008
a   1.99117664 +/- 0.00368          Node    60.84528 +/- 0.0007
e   0.4878330 +/- 0.000926          Incl.    6.54906 +/- 0.009
P   2.80973                H 26.63  G  0.15   U  8.1
q 1.01981482 +/- 4.33e-5    Q 2.96253845 +/- 0.00732
From 17 observations 2024 Nov. 22-26; mean residual 0".13
Residuals in arcseconds: 
241122 G96  .16-  .29+    241122 V06  .03-  .10+    241123 I52  .09-  .15+    
241122 G96  .13+  .10+    241122 V06  .00   .09+    241123 I52  .02-  .09+    
241122 G96  .12+  .29+    241122 F52  .06+  .15-    241126 V06  .16-  .06-    
241122 G96  .08+  .02+    241122 F52  .16-  .03-    241126 V06  .11+  .01+    
241122 V06  .04+  .04+    241123 I52  .05-  .08+    241126 V06  .03+  .05+    
241122 V06  .16+  .03+    241123 I52  .36+  .14-    

Ephemerides (geocentric):
Date (UTC) HH   RA             Dec           delta  r     elong  mag " sig PA
---- --------  ------------   ------------  ------ ------ -----  --- --------
2024 11 26 17  05 00 54.442   +30 40 43.08  .07078 1.0554 165.1 21.8 .139  50
2024 11 26 18  05 01 10.114   +30 44 46.26  .07093 1.0555 165.1 21.8 .145  49
2024 11 26 19  05 01 25.736   +30 48 48.24  .07108 1.0557 165.0 21.8 .151  48
2024 11 26 20  05 01 41.308   +30 52 49.02  .07124 1.0558 165.0 21.8 .157  48
2024 11 26 21  05 01 56.830   +30 56 48.62  .07139 1.0559 165.0 21.8 .163  47
2024 11 26 22  05 02 12.302   +31 00 47.02  .07154 1.0560 164.9 21.8 .169  47
2024 11 26 23  05 02 27.725   +31 04 44.25  .07169 1.0562 164.9 21.8 .175  46
2024 11 27 00  05 02 43.098   +31 08 40.31  .07185 1.0563 164.8 21.8 .181  46
2024 11 27 01  05 02 58.422   +31 12 35.20  .07200 1.0564 164.8 21.8 .187  45
2024 11 27 02  05 03 13.696   +31 16 28.92  .07216 1.0565 164.7 21.9 .193  45
2024 11 27 03  05 03 28.921   +31 20 21.50  .07231 1.0567 164.7 21.9 .200  44
2024 11 27 04  05 03 44.098   +31 24 12.93  .07246 1.0568 164.6 21.9 .206  44
2024 11 27 05  05 03 59.225   +31 28 03.21  .07262 1.0569 164.6 21.9 .213  44
2024 11 27 06  05 04 14.304   +31 31 52.36  .07277 1.0570 164.5 21.9 .219  43
2024 11 27 07  05 04 29.334   +31 35 40.37  .07293 1.0572 164.5 21.9 .226  43
2024 11 27 08  05 04 44.316   +31 39 27.27  .07308 1.0573 164.4 21.9 .232  43
2024 11 27 09  05 04 59.249   +31 43 13.04  .07324 1.0574 164.4 21.9 .239  43
2024 11 27 10  05 05 14.134   +31 46 57.70  .07339 1.0576 164.3 21.9 .245  42
2024 11 27 11  05 05 28.971   +31 50 41.25  .07355 1.0577 164.3 21.9 .252  42
2024 11 27 12  05 05 43.760   +31 54 23.71  .07371 1.0578 164.2 21.9 .259  42
2024 11 27 13  05 05 58.502   +31 58 05.06  .07386 1.0579 164.2 21.9 .266  42
2024 11 27 14  05 06 13.195   +32 01 45.33  .07402 1.0581 164.2 21.9 .272  41
2024 11 27 15  05 06 27.842   +32 05 24.51  .07418 1.0582 164.1 21.9 .279  41
2024 11 27 16  05 06 42.440   +32 09 02.61  .07433 1.0583 164.1 21.9 .286  41
2024 11 27 17  05 06 56.992   +32 12 39.64  .07449 1.0585 164.0 21.9 .293  41
2024 11 27 18  05 07 11.496   +32 16 15.60  .07465 1.0586 164.0 22.0 .300  41
2024 11 27 19  05 07 25.954   +32 19 50.50  .07480 1.0587 163.9 22.0 .307  40
2024 11 27 20  05 07 40.364   +32 23 24.34  .07496 1.0589 163.9 22.0 .314  40
2024 11 27 21  05 07 54.728   +32 26 57.13  .07512 1.0590 163.8 22.0 .321  40
2024 11 27 22  05 08 09.045   +32 30 28.88  .07528 1.0591 163.8 22.0 .328  40
2024 11 27 23  05 08 23.316   +32 33 59.59  .07544 1.0593 163.8 22.0 .335  40
2024 11 28 00  05 08 37.540   +32 37 29.26  .07559 1.0594 163.7 22.0 .342  40
2024 11 28 01  05 08 51.718   +32 40 57.90  .07575 1.0595 163.7 22.0 .349  40
2024 11 28 02  05 09 05.850   +32 44 25.52  .07591 1.0596 163.6 22.0 .356  40
2024 11 28 03  05 09 19.936   +32 47 52.12  .07607 1.0598 163.6 22.0 .363  39
2024 11 28 04  05 09 33.976   +32 51 17.71  .07623 1.0599 163.6 22.0 .370  39
2024 11 28 05  05 09 47.971   +32 54 42.29  .07639 1.0600 163.5 22.0 .378  39
2024 11 28 06  05 10 01.920   +32 58 05.87  .07655 1.0602 163.5 22.0 .385  39
2024 11 28 07  05 10 15.824   +33 01 28.45  .07671 1.0603 163.4 22.0 .392  39
2024 11 28 08  05 10 29.682   +33 04 50.03  .07687 1.0604 163.4 22.0 .399  39
2024 11 28 09  05 10 43.495   +33 08 10.64  .07703 1.0606 163.4 22.0 .406  39
2024 11 28 10  05 10 57.263   +33 11 30.25  .07719 1.0607 163.3 22.0 .414  39
2024 11 28 11  05 11 10.986   +33 14 48.90  .07735 1.0608 163.3 22.1 .421  39
2024 11 28 12  05 11 24.664   +33 18 06.57  .07751 1.0610 163.2 22.1 .428  39
2024 11 28 13  05 11 38.298   +33 21 23.27  .07767 1.0611 163.2 22.1 .436  39
2024 11 28 14  05 11 51.887   +33 24 39.02  .07783 1.0612 163.2 22.1 .443  38
2024 11 28 15  05 12 05.432   +33 27 53.81  .07799 1.0614 163.1 22.1 .450  38
2024 11 28 16  05 12 18.933   +33 31 07.64  .07816 1.0615 163.1 22.1 .457  38